Regional Weather Roundup
Issued by NWS Mobile, AL

Home | Current Version | Previous Version | Text Only | Print | Product List | Glossary On
Versions: 1 2 3 4 5 6 7 8 9 10 11 12 13 14 15 16 17 18 19 20 21 22 23 24 25 26 27 28 29 30 31 32 33 34 35 36 37 38 39 40 41 42 43 44 45 46 47 48 49 50
000
ASUS44 KMOB 210410
RWRMOB
REGIONAL WEATHER ROUNDUP
NATIONAL WEATHER SERVICE MOBILE AL
1100 PM CDT WED AUG 20 2014

NOTE: "FAIR" INDICATES FEW OR NO CLOUDS BELOW 12,000 FEET WITH NO
      SIGNIFICANT WEATHER AND/OR OBSTRUCTIONS TO VISIBILITY.

  * THESE STATIONS ARE PART OF THE UNIVERSITY OF SOUTH ALABAMA
    MESONET AND ARE NOT UNDER NWS OR FAA QUALITY CONTROL.

ALZ061>064-210500-
COASTAL ALABAMA

CITY           SKY/WX    TMP DP  RH WIND       PRES   REMARKS
MOBILE REG APT CLEAR     78  76  93 CALM      30.11F
BROOKLEY FIELD CLEAR     78  76  93 CALM      30.12R
USA CAMPUS*    NOT AVBL
DOG RIVER*     NOT AVBL


CITY           SKY/WX    TMP DP  RH WIND       PRES   REMARKS
MOUNT VERNON*  NOT AVBL
SARALAND*      NOT AVBL
BAY MINETTE*   NOT AVBL
LOXLEY*        NOT AVBL
ROBERTSDALE*   NOT AVBL
FAIRHOPE*      NOT AVBL
ELBERTA*       NOT AVBL
FOLEY*         NOT AVBL
GRAND BAY*     NOT AVBL
DAUPHIN ISLND* NOT AVBL
BON SCOUR NWR* NOT AVBL
GULF SHORES    PTCLDY    80  76  89 CALM      30.10S

$$

ALZ051>060-210500-
INTERIOR SOUTHWEST AND SOUTH CENTRAL ALABAMA

CITY           SKY/WX    TMP DP  RH WIND       PRES   REMARKS
GREENVILLE     CLEAR     78  75  90 CALM      30.12R
EVERGREEN      CLEAR     77  74  90 CALM      30.12R
CASTLEBERRY*   NOT AVBL
ATMORE*        NOT AVBL
DIXIE*         NOT AVBL
ANDALUSIA/OPP  CLEAR     77  72  84 CALM      30.12R
ANDALUSIA*     NOT AVBL
FLORALA APT    CLEAR     77  73  87 SW3       30.13S
FLORALA*       NOT AVBL

$$

FLZ001>006-210500-
WESTERN FLORIDA PANHANDLE

CITY           SKY/WX    TMP DP  RH WIND       PRES   REMARKS
PENSACOLA      PTCLDY    81  75  82 W5        30.10S
NAS PENSACOLA  PTCLDY    78  76  93 CALM      30.10S
MILTON         PTCLDY    78  73  84 W5        30.11S
WHTNG S FIELD  MOCLDY    79  74  84 CALM      30.11S


CITY           SKY/WX    TMP DP  RH WIND       PRES   REMARKS
WALNUT HILL*   NOT AVBL
JAY*           NOT AVBL
DUKE FIELD     PTCLDY    79  78  97 CALM      30.11R
CRESTVIEW      CLEAR     75  73  93 CALM      30.13R
VALPARAISO     NOT AVBL
DESTIN         CLEAR     85  78  80 CALM      30.10S HX  96

$$

MSZ076-079-210500-
INTERIOR SOUTHEAST MISSISSIPPI

CITY           SKY/WX    TMP DP  RH WIND       PRES   REMARKS
LEAKESVILLE*   NOT AVBL
AGRICOLA*      NOT AVBL

$$

MARINE OBSERVATIONS

STATION/POSITION TIME  TEMP    WIND        PRES    WAVE
                       AIR SEA DIR/SP/G            HT/PER
                 (UTC) (F)     (DEG/KT/KT) (MB)    (FT/S)
PASCAGOULA       0400   86     230/  5/  6 1018.9F
PETIT BOIS ISLND 0400   86     230/  7/  9 1019.3F
GRAND BAY        0300   85     230/  9     1020.0S
KATRINA CUT      0300   86     240/  9     1020.0R
CEDAR POINT      0300   85     230/ 12     1019.0F
E DAUPHIN ISLAND 0300   86     220/  6/  9 1019.3R
MIDDLE BAY LIGHT 0300   85     240/ 11     1018.6R
USCG MOBILE BAY  0400   83 86   CALM  /  1 1018.4F
STATE DOCKS      0400   83 87              1019.2F
MEAHER PARK      0300   85     260/  4     1019.3R
WEEKS BAY        0300   80                   N/A
FORT MORGAN      0400   85     250/  9/ 10 1018.9S
12 S ORANGE BCH  0400   86 86  230/  8/ 10 1019.4R   1/ 3
PENSACOLA BAY    0400   84 87  260/  3/  5 1019.5F
64 S DAUPHIN ISL 0310   86 88  210/  6/  8 1019.9R
67 S FORT MORGAN 0300   85                 1019.6R

$$

SELECTED LOCATIONS ACROSS THE REGION

CITY           SKY/WX    TMP DP  RH WIND       PRES   REMARKS
NEW ORLEANS    PTCLDY    79  71  76 CALM      30.09R
GULFPORT       CLEAR     83  76  79 CALM      30.09S
PASCAGOULA AP  CLEAR     77  75  93 CALM      30.09F
PASCAGOULA*    NOT AVBL
HATTIESBURG    CLEAR     82  75  79 SW3       30.10F
LAUREL         CLEAR     79  72  78 CALM      30.12S
MERIDIAN       CLEAR     76  73  91 CALM      30.10R
JACKSON        PTCLDY    80  73  79 S6        30.09R
MONTGOMERY     CLEAR     81  75  82 S5        30.11R
TROY           CLEAR     76  73  91 CALM      30.13R
KINSTON*       NOT AVBL
GENEVA*        NOT AVBL
ASHFORD*       NOT AVBL
DOTHAN         CLEAR     77  73  87 W5        30.14S
PANAMA CITY    CLEAR     77  74  90 CALM      30.10S

$$




USA.gov is the U.S. government's official web portal to all federal, state and local government web resources and services.